[[{"header":{"parameterUnit":"m.s-1","parameterCategory":1,"la1":30.2991,"la2":30.254,"lo1":-89.0895,"lo2":-89.0444,"dy":0.0017,"dx":0.0017,"nx":28,"ny":28,"refTime":"2026-01-31T09:00:00:Z","depth":0,"parameterNumber":2,"parameterNumberName":"U-component_of_WINDS"},"data":[0,0,0,0,0,0,0,0,0,0,0,0,0,0,0,0,0,0,0,0,0,0,0,0,0,0,0,0,0,0,0,0,0,0,0,0,0,0,0,0,0,0,0,0,0,0,0,0,0,0,0,0,0,0,0,0,0,0,3.0172,3.0172,0,3.0201,3.0202,3.0202,3.0168,3.0167,3.0166,3.0165,3.0195,3.0197,3.0199,0,0,0,0,0,0,0,0,0,0,0,0,0,3.0087,3.0088,3.0172,3.0172,3.0172,3.0201,3.0202,3.0202,3.0169,3.0167,3.0165,3.0164,3.0194,3.0197,3.0199,0,0,0,0,0,0,0,0,0,0,0,0,0,3.0121,3.0089,3.0172,3.0159,3.0158,3.0201,3.0202,3.0202,3.0169,3.0167,3.0165,3.0163,3.0193,3.0196,3.0199,3.0256,0,0,3.0208,3.021,0,0,0,0,0,0,0,0,3.0119,3.0124,3.0161,3.016,3.0159,3.0179,3.0183,3.022,3.0169,3.0165,3.0165,3.0162,3.0191,3.0194,3.0204,3.0257,3.0259,3.0209,3.0211,3.0212,3.0213,0,0,0,0,0,0,0,3.0116,3.0122,3.0183,3.0161,3.016,3.0152,3.0155,3.019,3.0188,3.0165,3.0163,3.0167,3.019,3.0201,3.0205,3.0259,3.0209,3.0211,3.0213,3.0214,3.0362,3.0364,0,0,0,0,0,0,3.0115,3.0121,3.0182,3.0184,3.0134,3.0155,3.0158,3.0175,3.0188,3.0188,3.0168,3.0165,3.0197,3.0201,3.0205,3.0274,3.0212,3.0215,3.0216,3.036,3.0362,3.0365,0,0,0,0,0,0,3.0114,3.0121,3.0181,3.0152,3.0159,3.0159,3.0177,3.0176,3.0187,3.019,3.019,3.018,3.0196,3.0201,3.0244,3.0274,3.0216,3.0219,3.0357,3.0361,3.0364,3.041,0,0,0,0,0,0,3.0111,3.0121,3.0142,3.0153,3.0161,3.0219,3.0179,3.0178,3.0192,3.0188,3.0201,3.0201,3.0195,3.024,3.0247,3.0277,3.0221,3.0355,3.0359,3.0363,3.0406,3.0414,3.0422,0,0,0,0,0,3.0109,3.0154,3.0143,3.0151,3.0187,3.0221,3.0226,3.0217,3.0195,3.0216,3.0219,3.0201,3.027,3.0244,3.0252,3.0284,3.0353,3.0358,3.0362,3.0402,3.0413,3.0421,0,0,0,0,0,0,3.0146,3.0155,3.0143,3.0193,3.0207,3.0215,3.0242,3.0229,3.0249,3.0244,3.0233,3.0236,3.0282,3.0287,3.0259,3.034,3.0307,3.0314,3.0335,3.0345,3.0353,3.0351,3.0224,0,0,0,0,0,3.0161,3.0187,3.0193,3.0237,3.0244,3.0242,3.0256,3.0249,3.0263,3.0268,3.0273,3.0287,3.0312,3.0329,3.0352,3.0406,3.0409,3.0432,3.044,3.0446,3.0452,3.0483,3.0493,3.038,3.038,3.038,0,0,3.019,3.0198,3.0215,3.0244,3.0254,3.0282,3.0247,3.0278,3.0299,3.0273,3.0314,3.0318,3.0333,3.0382,3.0404,3.0388,3.0484,3.0453,3.0458,3.046,3.0489,3.05,3.0509,3.0384,3.0383,3.0383,0,0,3.0259,3.0267,3.0305,3.0315,3.033,3.0329,3.0338,3.0349,3.0351,3.0392,3.0373,3.0398,3.0441,3.0453,3.0464,3.0539,3.0523,3.0547,3.0588,3.0618,3.0627,3.0635,3.0663,3.0672,3.0552,3.0553,3.0553,0,3.0294,3.0335,3.0326,3.0359,3.0373,3.035,3.0389,3.0399,3.0421,3.0432,3.0413,3.0467,3.0475,3.0528,3.0546,3.0556,3.0567,3.0545,3.0627,3.0634,3.0642,3.0668,3.0678,3.0555,3.0555,3.0555,3.0554,0,3.0378,3.0407,3.0436,3.0458,3.0475,3.0511,3.0507,3.0525,3.0517,3.0518,3.056,3.057,3.0595,3.0607,3.0598,3.0658,3.0648,3.0628,3.0595,3.0655,3.068,3.069,3.0559,3.0558,3.0558,3.0557,0,0,3.0471,3.0488,3.0499,3.0509,3.0525,3.0548,3.0583,3.0607,3.0624,3.064,3.067,3.0707,3.0689,3.0703,3.0695,3.0721,3.0781,3.0699,3.0699,3.0715,3.0849,3.0864,3.0876,3.0771,3.0773,3.0774,3.0848,0,3.0541,3.0601,3.0594,3.0652,3.068,3.066,3.069,3.0704,3.0706,3.0729,3.0731,3.0759,3.0733,3.0741,3.0766,3.0769,3.0808,3.0763,3.0799,3.08,3.0797,3.0889,3.0905,3.0974,3.0858,3.0859,3.086,0,3.063,3.065,3.0711,3.0723,3.0735,3.0762,3.0785,3.0808,3.0823,3.0823,3.0838,3.0827,3.0863,3.0829,3.0878,3.0848,3.0862,3.0866,3.0869,3.0872,3.0835,3.0896,3.0996,3.1007,3.0875,3.0874,3.0873,0,3.0693,3.0735,3.0777,3.0787,3.0802,3.0822,3.0829,3.0842,3.0858,3.0878,3.0888,3.0912,3.0926,3.0944,3.094,3.0916,3.0991,3.0957,3.0993,3.0993,3.101,3.1009,3.1115,3.1018,3.1018,3.1017,3.1017,0,3.0772,3.081,3.0806,3.0832,3.0875,3.0867,3.0909,3.0914,3.0926,3.0953,3.0937,3.0963,3.0955,3.0981,3.0977,3.102,3.1025,3.1027,3.1026,3.1029,3.1029,3.1038,3.1034,3.102,3.102,3.1019,3.1019,0,3.085,3.0848,3.0893,3.0904,3.0908,3.0939,3.0949,3.0974,3.0975,3.1009,3.1017,3.1018,3.1048,3.1045,3.1078,3.1076,3.1129,3.1121,3.1124,3.1123,3.1159,3.1156,3.1275,3.1291,3.1183,3.1184,3.1185,0,3.0901,3.093,3.0944,3.0961,3.097,3.0998,3.1014,3.1007,3.1025,3.1045,3.1068,3.1096,3.1118,3.1166,3.117,3.1196,3.1189,3.123,3.1193,3.1196,3.1191,3.119,3.1193,3.1237,3.1238,3.1239,3.124,0,3.0991,3.099,3.1014,3.1038,3.1058,3.1077,3.1094,3.1109,3.1104,3.1125,3.1155,3.1172,3.1206,3.1235,3.1259,3.1267,3.1253,3.1251,3.1261,3.1265,3.1266,3.1267,3.1145,3.1249,3.1248,3.1247,3.1247,3.1246,3.1058,3.1084,3.1098,3.1126,3.1138,3.1155,3.1179,3.1183,3.1208,3.1236,3.123,3.1265,3.128,3.1311,3.1321,3.1348,3.1334,3.1348,3.1352,3.1355,3.136,3.1261,3.1353,3.1352,3.1352,3.1352,3.1352,0,3.1149,3.1158,3.1183,3.1208,3.123,3.1215,3.1234,3.1253,3.1284,3.1299,3.1321,3.1357,3.1384,3.1391,3.1418,3.1438,3.1433,3.1446,3.1444,3.1447,3.1371,3.136,3.145,3.145,3.145,3.145,3.145,3.145,3.1199,3.1242,3.1242,3.1291,3.1299,3.1333,3.1345,3.1361,3.1373,3.1413,3.1436,3.144,3.1452,3.148,3.1505,3.1506,3.1518,3.1533,3.1532,3.1462,3.1452,3.1442,3.1432,3.1536,3.1536,3.1606,3.1606,3.1607]},{"header":{"parameterUnit":"m.s-1","parameterCategory":1,"la1":30.2991,"la2":30.254,"lo1":-89.0895,"lo2":-89.0444,"dy":0.0017,"dx":0.0017,"nx":28,"ny":28,"refTime":"2026-01-31T09:00:00:Z","depth":0,"parameterNumber":3,"parameterNumberName":"V-component_of_WINDS"},"data":[0,0,0,0,0,0,0,0,0,0,0,0,0,0,0,0,0,0,0,0,0,0,0,0,0,0,0,0,0,0,0,0,0,0,0,0,0,0,0,0,0,0,0,0,0,0,0,0,0,0,0,0,0,0,0,0,0,0,-2.4472,-2.4473,0,-2.4603,-2.4604,-2.4606,-2.4643,-2.4642,-2.4642,-2.4641,-2.4773,-2.4777,-2.4781,0,0,0,0,0,0,0,0,0,0,0,0,0,-2.4252,-2.4256,-2.4471,-2.4473,-2.4475,-2.4603,-2.4604,-2.4606,-2.4643,-2.4642,-2.4642,-2.4641,-2.4772,-2.4777,-2.4782,0,0,0,0,0,0,0,0,0,0,0,0,0,-2.4362,-2.4257,-2.4471,-2.4509,-2.4513,-2.4602,-2.4604,-2.4607,-2.4643,-2.4642,-2.4641,-2.464,-2.477,-2.4776,-2.4782,-2.4843,0,0,-2.4802,-2.4804,0,0,0,0,0,0,0,0,-2.4355,-2.437,-2.4502,-2.4506,-2.4512,-2.4606,-2.4576,-2.4686,-2.4644,-2.4594,-2.4641,-2.464,-2.4718,-2.4729,-2.4755,-2.4849,-2.4854,-2.4802,-2.4806,-2.4809,-2.481,0,0,0,0,0,0,0,-2.4348,-2.4364,-2.4523,-2.4503,-2.451,-2.4519,-2.4533,-2.4597,-2.466,-2.4598,-2.4601,-2.4616,-2.4721,-2.4749,-2.4759,-2.4856,-2.4802,-2.4808,-2.4811,-2.4814,-2.5008,-2.501,0,0,0,0,0,0,-2.4334,-2.4358,-2.4519,-2.4527,-2.4429,-2.4524,-2.454,-2.4576,-2.466,-2.4672,-2.4617,-2.4618,-2.4739,-2.4751,-2.4764,-2.4842,-2.4809,-2.4814,-2.4818,-2.5007,-2.5009,-2.501,0,0,0,0,0,0,-2.4329,-2.4348,-2.4514,-2.4443,-2.4465,-2.4529,-2.457,-2.458,-2.4608,-2.4674,-2.4686,-2.4635,-2.4739,-2.4755,-2.4824,-2.4847,-2.4817,-2.4823,-2.5005,-2.5008,-2.5009,-2.4996,0,0,0,0,0,0,-2.4323,-2.4346,-2.437,-2.4444,-2.4469,-2.4572,-2.4571,-2.4583,-2.4619,-2.4621,-2.4694,-2.4705,-2.4739,-2.4814,-2.483,-2.4855,-2.4828,-2.5004,-2.5006,-2.5009,-2.4995,-2.4998,-2.5,0,0,0,0,0,-2.4315,-2.436,-2.4371,-2.439,-2.45,-2.4573,-2.4587,-2.4627,-2.4621,-2.4646,-2.4688,-2.4702,-2.4841,-2.4821,-2.4839,-2.4866,-2.5002,-2.5006,-2.5009,-2.4994,-2.4997,-2.5,0,0,0,0,0,0,-2.4285,-2.437,-2.4383,-2.4453,-2.4506,-2.4579,-2.4611,-2.4628,-2.4683,-2.4682,-2.4728,-2.4744,-2.481,-2.4845,-2.482,-2.493,-2.4922,-2.4929,-2.4905,-2.4909,-2.4911,-2.4902,-2.4833,0,0,0,0,0,-2.4287,-2.434,-2.4411,-2.4466,-2.4492,-2.4547,-2.458,-2.4606,-2.4662,-2.4684,-2.4732,-2.4785,-2.4841,-2.4876,-2.4931,-2.5,-2.5017,-2.5028,-2.5031,-2.5032,-2.5038,-2.5079,-2.5085,-2.5021,-2.5021,-2.5021,0,0,-2.4291,-2.4344,-2.4374,-2.4461,-2.4505,-2.4559,-2.4565,-2.4621,-2.4662,-2.4692,-2.4761,-2.4798,-2.486,-2.493,-2.4963,-2.4961,-2.506,-2.5036,-2.5037,-2.5042,-2.5083,-2.5089,-2.5095,-2.5023,-2.5022,-2.5022,0,0,-2.4326,-2.4371,-2.4423,-2.4467,-2.4534,-2.4571,-2.4583,-2.4654,-2.4681,-2.475,-2.4775,-2.4824,-2.4918,-2.4963,-2.4998,-2.5052,-2.5068,-2.5068,-2.5082,-2.5122,-2.5127,-2.5132,-2.5153,-2.5159,-2.5074,-2.5074,-2.5074,0,-2.4322,-2.4405,-2.4447,-2.4503,-2.4541,-2.4573,-2.4626,-2.4667,-2.4748,-2.4774,-2.477,-2.4892,-2.4936,-2.5017,-2.5031,-2.5058,-2.5074,-2.5061,-2.5123,-2.5128,-2.5133,-2.5154,-2.5161,-2.5073,-2.5073,-2.5074,-2.5074,0,-2.4398,-2.4455,-2.4489,-2.4568,-2.461,-2.4664,-2.4715,-2.4752,-2.4775,-2.4812,-2.4884,-2.4938,-2.5006,-2.5027,-2.5049,-2.5112,-2.5109,-2.5114,-2.5107,-2.5138,-2.5158,-2.5167,-2.5073,-2.5073,-2.5073,-2.5073,0,0,-2.4417,-2.452,-2.4532,-2.457,-2.4647,-2.4691,-2.4748,-2.4815,-2.4847,-2.4902,-2.4951,-2.5032,-2.5037,-2.5077,-2.5104,-2.5139,-2.5181,-2.514,-2.5142,-2.5147,-2.5256,-2.5253,-2.5262,-2.5192,-2.5193,-2.5195,-2.5252,0,-2.4463,-2.4565,-2.4606,-2.4689,-2.4744,-2.4775,-2.4825,-2.4877,-2.4914,-2.4965,-2.5005,-2.5062,-2.5064,-2.5089,-2.5124,-2.5168,-2.5204,-2.5164,-2.5238,-2.5241,-2.5223,-2.5272,-2.5269,-2.532,-2.526,-2.5261,-2.5262,0,-2.453,-2.4588,-2.4677,-2.4749,-2.4774,-2.4817,-2.4883,-2.4932,-2.4993,-2.5017,-2.5062,-2.5088,-2.5149,-2.5138,-2.5223,-2.5196,-2.5229,-2.5255,-2.5258,-2.5267,-2.5254,-2.5284,-2.5337,-2.5345,-2.5275,-2.5274,-2.5273,0,-2.4537,-2.4637,-2.4704,-2.4734,-2.482,-2.485,-2.4887,-2.4947,-2.4986,-2.5044,-2.507,-2.5133,-2.5168,-2.5217,-2.5259,-2.5247,-2.5341,-2.5333,-2.5364,-2.5363,-2.5382,-2.5381,-2.5443,-2.5401,-2.5401,-2.5401,-2.5401,0,-2.4585,-2.4638,-2.4708,-2.475,-2.4811,-2.4857,-2.4917,-2.4956,-2.501,-2.5059,-2.509,-2.5136,-2.5189,-2.5242,-2.5276,-2.5342,-2.5357,-2.5379,-2.5388,-2.5377,-2.5375,-2.54,-2.5398,-2.5403,-2.5403,-2.5402,-2.5402,0,-2.4603,-2.4652,-2.4728,-2.4803,-2.4824,-2.4866,-2.4931,-2.4973,-2.5011,-2.5074,-2.5091,-2.5152,-2.5216,-2.5263,-2.5346,-2.5369,-2.544,-2.5448,-2.542,-2.5424,-2.5453,-2.545,-2.5534,-2.5548,-2.5496,-2.5496,-2.5496,0,-2.4631,-2.4673,-2.4755,-2.4791,-2.4828,-2.4885,-2.4926,-2.4973,-2.5014,-2.5088,-2.5121,-2.5187,-2.5243,-2.5344,-2.5396,-2.5459,-2.547,-2.5495,-2.548,-2.5469,-2.5472,-2.547,-2.5475,-2.5497,-2.5498,-2.5498,-2.5498,0,-2.4676,-2.4698,-2.4755,-2.4822,-2.487,-2.4924,-2.4978,-2.5006,-2.5064,-2.5108,-2.5175,-2.5218,-2.5304,-2.537,-2.5439,-2.5478,-2.5498,-2.5503,-2.5513,-2.5504,-2.5486,-2.5498,-2.5427,-2.5501,-2.55,-2.55,-2.55,-2.55,-2.4701,-2.4741,-2.4805,-2.4868,-2.4915,-2.4966,-2.5009,-2.5054,-2.5111,-2.5185,-2.521,-2.5279,-2.5341,-2.5437,-2.5476,-2.5531,-2.5531,-2.5545,-2.555,-2.5553,-2.5553,-2.5477,-2.5543,-2.5543,-2.5543,-2.5543,-2.5543,0,-2.4748,-2.4792,-2.485,-2.4926,-2.4976,-2.4992,-2.5054,-2.5095,-2.5156,-2.5212,-2.5267,-2.5345,-2.541,-2.5467,-2.5535,-2.5568,-2.5579,-2.5585,-2.5583,-2.5592,-2.5549,-2.5534,-2.5575,-2.5575,-2.5575,-2.5574,-2.5574,-2.5574,-2.4779,-2.4849,-2.4879,-2.4972,-2.5015,-2.5085,-2.5119,-2.5167,-2.5212,-2.5298,-2.5353,-2.539,-2.5447,-2.5519,-2.558,-2.5595,-2.5619,-2.5622,-2.564,-2.5598,-2.5595,-2.5591,-2.5577,-2.5627,-2.5627,-2.5679,-2.5679,-2.568]}]]